M I D A S
Marine Information and Data Acquisition System
Tripno 2000 of the Zeeleeuw from 2010-12-07 07:11:42 to 2010-12-07 15:12:22
Back to CruiseResearch ActivitiesStationsMapUnderway DataData graphs

EquipmentUnitsComments
TimeDGPSUTC
LatitudeDGPSDM.mWGS84
LongitudeDGPSDM.mWGS84
SpeedMeteo Stationm/sRelative wind speed
DirectionMeteo StationdegRelative wind direction
TemperatureMeteo Stationdeg CelciusAir temperature
PressureMeteo StationPaAtmospheric pressure
HumidityMeteo Station%Relative humidity
Missing or incorrect values are displayed as -999
Metereological data collected by the RV Zeeleeuw from 2010-12-07 07:20:27 to 2010-12-07 15:10:41
Time Latitude Longitude Speed Direction Temperature Pressure Humidity
2010-12-07 07:21 51°13.659 2°55.958 -999 325 -2.5 100410 42
2010-12-07 07:22 51°13.673 2°55.908 -999 22 -2.5 100410 42
2010-12-07 07:23 51°13.688 2°55.799 -999 340 -2.5 100420 42
2010-12-07 07:24 51°13.685 2°55.736 -999 10 -2.5 100420 42
2010-12-07 07:25 51°13.7 2°55.732 -999 18 -2.6 100410 42
2010-12-07 07:26 51°13.734 2°55.704 -999 8 -2.7 100410 42
2010-12-07 07:27 51°13.802 2°55.644 0.1 354 -2.7 100420 42
2010-12-07 07:28 51°13.893 2°55.575 -999 345 -2.7 100410 41
2010-12-07 07:29 51°13.998 2°55.508 0.1 355 -2.7 100410 43
2010-12-07 07:30 51°14.096 2°55.44 -999 354 -2.6 100420 42
2010-12-07 07:31 51°14.191 2°55.366 0.1 357 -2.7 100420 42
2010-12-07 07:32 51°14.28 2°55.273 -999 358 -2.7 100410 42
2010-12-07 07:33 51°14.37 2°55.176 -999 359 -2.6 100410 42
2010-12-07 07:34 51°14.472 2°55.071 -999 355 -2.6 100410 42
2010-12-07 07:35 51°14.584 2°54.942 -999 353 -2.6 100410 42
2010-12-07 07:36 51°14.682 2°54.778 -999 341 -2.5 100410 41
2010-12-07 07:37 51°14.676 2°54.535 -999 22 -2.5 100410 42
2010-12-07 07:38 51°14.562 2°54.308 -999 316 -2.4 100410 42
2010-12-07 07:39 51°14.448 2°54.05 -999 317 -2.3 100410 43
2010-12-07 07:40 51°14.332 2°53.787 -999 22 -2.3 100400 43
2010-12-07 07:41 51°14.213 2°53.52 -999 320 -2.3 100410 42
2010-12-07 07:42 51°14.093 2°53.252 -999 316 -2.3 100410 43
2010-12-07 07:43 51°13.978 2°52.977 -999 316 -2.2 100410 43
2010-12-07 07:44 51°13.868 2°52.693 -999 323 -2 100410 42
2010-12-07 07:45 51°13.76 2°52.408 -999 321 -1.9 100410 43
2010-12-07 07:46 51°13.664 2°52.112 -999 319 -1.9 100410 43
2010-12-07 07:47 51°13.568 2°51.822 -999 317 -1.8 100410 43
2010-12-07 07:48 51°13.497 2°51.609 -999 22 -1.8 100410 43
2010-12-07 07:49 51°13.441 2°51.465 -999 22 -1.8 100410 43
2010-12-07 07:50 51°13.415 2°51.394 -999 22 -1.7 100410 43
2010-12-07 07:51 51°13.396 2°51.346 -999 22 -1.7 100410 43
2010-12-07 07:52 51°13.377 2°51.298 -999 22 -1.7 100410 42
2010-12-07 07:53 51°13.359 2°51.253 -999 22 -1.6 100410 43
2010-12-07 07:54 51°13.341 2°51.208 -999 22 -1.6 100410 43
2010-12-07 07:55 51°13.324 2°51.164 -999 22 -1.6 100410 43
2010-12-07 07:56 51°13.3 2°51.117 -999 261 -1.7 100420 43
2010-12-07 07:57 51°13.242 2°51.085 -999 22 -1.7 100420 43
2010-12-07 07:58 51°13.152 2°51.086 -999 22 -1.7 100420 43
2010-12-07 07:59 51°13.066 2°51.07 -999 22 -1.6 100420 43
2010-12-07 08:00 51°12.995 2°51.025 -999 22 -1.6 100420 42
2010-12-07 08:01 51°12.935 2°50.971 -999 257 -1.6 100430 43
2010-12-07 08:02 51°12.884 2°50.903 -999 22 -1.6 100430 43
2010-12-07 08:03 51°12.833 2°50.833 -999 22 -1.6 100440 43
2010-12-07 08:04 51°12.789 2°50.746 -999 22 -1.6 100430 43
2010-12-07 08:05 51°12.751 2°50.647 -999 22 -1.7 100440 43
2010-12-07 08:06 51°12.711 2°50.547 -999 22 -1.7 100440 43
2010-12-07 08:07 51°12.669 2°50.449 -999 22 -1.7 100440 43
2010-12-07 08:08 51°12.626 2°50.352 -999 249 -1.8 100440 42
2010-12-07 08:09 51°12.581 2°50.256 -999 22 -1.8 100440 43
2010-12-07 08:10 51°12.537 2°50.16 -999 22 -1.8 100440 43
2010-12-07 08:11 51°12.493 2°50.064 -999 22 -1.9 100440 43
2010-12-07 08:12 51°12.448 2°49.97 -999 22 -2 100430 43
2010-12-07 08:13 51°12.405 2°49.875 -999 249 -2.1 100440 43
2010-12-07 08:14 51°12.367 2°49.776 -999 22 -2.1 100430 43
2010-12-07 08:15 51°12.333 2°49.674 -999 249 -2.1 100430 43
2010-12-07 08:16 51°12.297 2°49.575 -999 254 -2.1 100430 42
2010-12-07 08:17 51°12.261 2°49.475 -999 260 -2.1 100430 43
2010-12-07 08:18 51°12.225 2°49.375 -999 258 -2.1 100430 43
2010-12-07 08:19 51°12.189 2°49.275 -999 254 -2.1 100430 43
2010-12-07 08:20 51°12.152 2°49.176 -999 256 -2.1 100430 43
2010-12-07 08:21 51°12.116 2°49.075 -999 257 -2.1 100430 43
2010-12-07 08:22 51°12.08 2°48.976 -999 257 -2.2 100430 43
2010-12-07 08:23 51°12.043 2°48.877 -999 250 -2.2 100430 43
2010-12-07 08:24 51°12.006 2°48.778 -999 254 -2.2 100440 42
2010-12-07 08:25 51°11.969 2°48.68 -999 261 -2.2 100430 43
2010-12-07 08:26 51°11.932 2°48.581 -999 259 -2.2 100430 43
2010-12-07 08:27 51°11.897 2°48.48 -999 270 -2.2 100430 43
2010-12-07 08:28 51°11.867 2°48.376 -999 270 -2.2 100430 43
2010-12-07 08:29 51°11.844 2°48.269 -999 22 -2.2 100430 43
2010-12-07 08:30 51°11.824 2°48.162 -999 22 -2.2 100430 43
2010-12-07 08:31 51°11.804 2°48.055 -999 22 -2.3 100430 43
2010-12-07 08:32 51°11.789 2°47.946 -999 22 -2.3 100440 42
2010-12-07 08:33 51°11.775 2°47.837 -999 22 -2.2 100440 43
2010-12-07 08:34 51°11.76 2°47.727 -999 22 -2.2 100440 43
2010-12-07 08:35 51°11.756 2°47.619 -999 38 -2.1 100440 43
2010-12-07 08:36 51°11.758 2°47.524 -999 42 -2 100440 43
2010-12-07 08:37 51°11.756 2°47.436 -999 22 -2 100440 43
2010-12-07 08:38 51°11.757 2°47.351 -999 44 -2 100450 43
2010-12-07 08:39 51°11.766 2°47.271 -999 37 -2 100450 43
2010-12-07 08:40 51°11.785 2°47.202 -999 27 -2 100450 42
2010-12-07 08:41 51°11.827 2°47.163 2.5 -999 -1.9 100460 43
2010-12-07 08:42 51°11.849 2°47.224 3.5 349 -1.9 100450 43
2010-12-07 08:43 51°11.846 2°47.256 2.5 344 -2 100450 44
2010-12-07 08:44 51°11.829 2°47.296 -999 330 -2.1 100460 43
2010-12-07 08:45 51°11.75 2°47.312 -999 22 -2.2 100460 43
2010-12-07 08:46 51°11.678 2°47.151 -999 22 -2.1 100460 43
2010-12-07 08:47 51°11.616 2°46.856 2.8 317 -2.1 100470 43
2010-12-07 08:48 51°11.544 2°46.502 3.6 317 -2.1 100470 41
2010-12-07 08:49 51°11.456 2°46.143 4.6 19 -2.1 100470 42
2010-12-07 08:50 51°11.348 2°45.795 3.5 315 -2.1 100460 42
2010-12-07 08:51 51°11.23 2°45.455 4.9 25 -2.1 100460 43
2010-12-07 08:52 51°11.11 2°45.12 2.8 22 -2.1 100470 42
2010-12-07 08:53 51°10.991 2°44.791 -999 22 -2.2 100470 43
2010-12-07 08:54 51°10.864 2°44.475 -999 22 -2.2 100470 43
2010-12-07 08:55 51°10.745 2°44.153 -999 22 -2.3 100470 43
2010-12-07 08:56 51°10.625 2°43.834 0.5 315 -2.3 100470 42
2010-12-07 08:57 51°10.505 2°43.517 -999 318 -2.3 100480 43
2010-12-07 08:58 51°10.386 2°43.224 -999 316 -2.3 100480 43
2010-12-07 08:59 51°10.3 2°43.025 -999 22 -2.3 100480 43
2010-12-07 09:00 51°10.24 2°42.89 -999 22 -2.3 100480 43
2010-12-07 09:01 51°10.199 2°42.831 -999 262 -2.3 100480 43
2010-12-07 09:02 51°10.191 2°42.805 -999 262 -2.3 100470 43
2010-12-07 09:03 51°10.187 2°42.785 -999 25 -2.3 100480 43
2010-12-07 09:04 51°10.181 2°42.763 -999 13 -2.3 100480 42
2010-12-07 09:05 51°10.173 2°42.742 -999 23 -2.3 100480 43
2010-12-07 09:06 51°10.165 2°42.72 -999 22 -2.3 100480 43
2010-12-07 09:07 51°10.139 2°42.66 -999 262 -2.2 100480 42
2010-12-07 09:08 51°10.106 2°42.471 -999 329 -2.2 100480 43
2010-12-07 09:09 51°10.16 2°42.183 -999 338 -2.2 100480 43
2010-12-07 09:10 51°10.144 2°41.84 -999 326 -2.1 100480 43
2010-12-07 09:11 51°10.014 2°41.55 -999 315 -2.1 100470 43
2010-12-07 09:12 51°9.96 2°41.21 -999 329 -2.1 100480 42
2010-12-07 09:13 51°9.981 2°40.85 -999 342 -2.1 100480 43
2010-12-07 09:14 51°10.015 2°40.487 -999 337 -2.1 100480 43
2010-12-07 09:15 51°10.05 2°40.123 -999 341 -2 100470 43
2010-12-07 09:16 51°10.099 2°39.763 -999 345 -1.9 100480 43
2010-12-07 09:17 51°10.149 2°39.396 -999 359 -1.7 100470 43
2010-12-07 09:18 51°10.151 2°39.036 -999 330 -1.7 100470 43
2010-12-07 09:19 51°10.065 2°38.689 -999 22 -1.6 100470 43
2010-12-07 09:20 51°9.96 2°38.523 -999 253 -1.6 100460 42
2010-12-07 09:21 51°9.865 2°38.46 -999 249 -1.5 100470 43
2010-12-07 09:22 51°9.796 2°38.383 -999 264 -1.4 100480 44
2010-12-07 09:23 51°9.747 2°38.3 -999 22 -1.4 100470 44
2010-12-07 09:24 51°9.711 2°38.207 -999 270 -1.3 100480 44
2010-12-07 09:25 51°9.677 2°38.115 -999 23 -1.3 100480 44
2010-12-07 09:26 51°9.646 2°38.024 -999 22 -1.3 100470 44
2010-12-07 09:27 51°9.617 2°37.932 -999 22 -1.3 100480 43
2010-12-07 09:28 51°9.588 2°37.838 -999 22 -1.4 100470 42
2010-12-07 09:29 51°9.556 2°37.739 -999 18 -1.4 100470 43
2010-12-07 09:30 51°9.523 2°37.634 -999 270 -1.4 100470 43
2010-12-07 09:31 51°9.49 2°37.528 -999 269 -1.5 100470 43
2010-12-07 09:32 51°9.457 2°37.425 -999 24 -1.5 100470 43
2010-12-07 09:33 51°9.425 2°37.324 -999 24 -1.5 100470 43
2010-12-07 09:34 51°9.396 2°37.221 -999 22 -1.5 100470 43
2010-12-07 09:35 51°9.37 2°37.117 -999 22 -1.5 100480 43
2010-12-07 09:36 51°9.346 2°37.012 -999 22 -1.5 100470 42
2010-12-07 09:37 51°9.323 2°36.907 -999 22 -1.5 100470 42
2010-12-07 09:38 51°9.3 2°36.802 -999 22 -1.6 100470 43
2010-12-07 09:39 51°9.277 2°36.697 -999 22 -1.6 100470 43
2010-12-07 09:40 51°9.262 2°36.59 -999 22 -1.6 100470 43
2010-12-07 09:41 51°9.252 2°36.482 -999 22 -1.5 100460 43
2010-12-07 09:42 51°9.244 2°36.373 -999 22 -1.3 100460 43
2010-12-07 09:43 51°9.237 2°36.263 -999 22 -1.3 100470 43
2010-12-07 09:44 51°9.229 2°36.153 -999 22 -1.3 100470 42
2010-12-07 09:45 51°9.222 2°36.042 -999 22 -1.3 100470 43
2010-12-07 09:46 51°9.214 2°35.931 -999 22 -1.3 100460 43
2010-12-07 09:47 51°9.207 2°35.822 -999 22 -1.4 100470 43
2010-12-07 09:48 51°9.199 2°35.713 -999 22 -1.4 100470 43
2010-12-07 09:49 51°9.192 2°35.605 -999 22 -1.4 100470 43
2010-12-07 09:50 51°9.184 2°35.498 -999 22 -1.3 100460 43
2010-12-07 09:51 51°9.176 2°35.392 -999 22 -1.1 100460 44
2010-12-07 09:52 51°9.169 2°35.286 -999 22 -1.1 100460 43
2010-12-07 09:53 51°9.162 2°35.182 -999 22 -1 100460 44
2010-12-07 09:54 51°9.154 2°35.078 -999 22 -1 100460 44
2010-12-07 09:55 51°9.147 2°34.973 -999 22 -1 100460 44
2010-12-07 09:56 51°9.139 2°34.867 -999 22 -1 100460 44
2010-12-07 09:57 51°9.135 2°34.763 -999 43 -0.9 100460 44
2010-12-07 09:58 51°9.143 2°34.663 -999 29 -0.9 100460 44
2010-12-07 09:59 51°9.163 2°34.574 -999 21 -0.9 100450 44
2010-12-07 10:00 51°9.192 2°34.499 -999 18 -0.9 100460 43
2010-12-07 10:01 51°9.224 2°34.434 -999 20 -0.8 100450 44
2010-12-07 10:02 51°9.258 2°34.381 -999 11 -0.7 100450 44
2010-12-07 10:03 51°9.298 2°34.342 -999 2 -0.6 100440 44
2010-12-07 10:04 51°9.338 2°34.327 -999 2 -0.4 100440 44
2010-12-07 10:05 51°9.372 2°34.313 -999 359 -0.5 100440 44
2010-12-07 10:06 51°9.393 2°34.297 -999 359 -0.4 100440 44
2010-12-07 10:07 51°9.405 2°34.279 -999 356 -0.3 100440 44
2010-12-07 10:08 51°9.412 2°34.262 -999 353 -0.3 100440 43
2010-12-07 10:09 51°9.457 2°34.305 8.8 343 -0.2 100420 44
2010-12-07 10:10 51°9.589 2°34.477 9.1 341 -0.3 100410 43
2010-12-07 10:11 51°9.746 2°34.69 10.8 338 -0.2 100410 43
2010-12-07 10:12 51°9.905 2°34.908 11.2 336 -0.1 100410 45
2010-12-07 10:13 51°10.061 2°35.127 8.6 339 -0.1 100410 45
2010-12-07 10:14 51°10.215 2°35.352 11.3 339 -0.1 100410 43
2010-12-07 10:15 51°10.351 2°35.605 12.4 338 -0.1 100410 44
2010-12-07 10:16 51°10.473 2°35.876 9.4 336 -0.1 100410 42
2010-12-07 10:17 51°10.596 2°36.146 10.7 339 -0.1 100410 44
2010-12-07 10:18 51°10.718 2°36.415 12.3 338 -0.1 100400 42
2010-12-07 10:19 51°10.84 2°36.683 9 339 -0.1 100400 43
2010-12-07 10:20 51°10.963 2°36.951 11.6 337 -0.1 100400 42
2010-12-07 10:21 51°11.088 2°37.218 11.4 337 -0.1 100400 43
2010-12-07 10:22 51°11.211 2°37.486 9.8 340 -0.1 100420 43
2010-12-07 10:23 51°11.335 2°37.754 8.6 338 -0.1 100410 42
2010-12-07 10:24 51°11.46 2°38.024 8.1 341 -0.1 100410 41
2010-12-07 10:25 51°11.585 2°38.293 11.5 339 -0.2 100410 42
2010-12-07 10:26 51°11.71 2°38.561 9 342 -0.2 100410 43
2010-12-07 10:27 51°11.835 2°38.829 7.8 339 -0.1 100410 43
2010-12-07 10:28 51°11.96 2°39.096 10.5 337 -0.1 100410 43
2010-12-07 10:29 51°12.085 2°39.364 12.1 337 -0.1 100410 43
2010-12-07 10:30 51°12.21 2°39.633 10.2 339 -0.1 100410 42
2010-12-07 10:31 51°12.335 2°39.903 10.7 339 -0.2 100400 43
2010-12-07 10:32 51°12.46 2°40.17 10.2 339 -0.3 100410 42
2010-12-07 10:33 51°12.584 2°40.438 8.6 338 -0.2 100410 41
2010-12-07 10:34 51°12.709 2°40.705 11.6 339 -0.2 100400 43
2010-12-07 10:35 51°12.829 2°40.98 11.7 338 -0.2 100410 42
2010-12-07 10:36 51°12.947 2°41.257 10.2 336 -0.3 100410 43
2010-12-07 10:37 51°13.065 2°41.532 5.6 335 -0.3 100400 43
2010-12-07 10:38 51°13.184 2°41.808 5.6 337 -0.3 100400 43
2010-12-07 10:39 51°13.303 2°42.084 9.1 336 -0.3 100400 42
2010-12-07 10:40 51°13.423 2°42.362 10.2 334 -0.3 100400 40
2010-12-07 10:41 51°13.544 2°42.643 10.8 336 -0.3 100410 43
2010-12-07 10:42 51°13.666 2°42.923 10.1 337 -0.3 100410 42
2010-12-07 10:43 51°13.788 2°43.203 10.8 337 -0.3 100410 42
2010-12-07 10:44 51°13.912 2°43.48 5.3 338 -0.3 100410 42
2010-12-07 10:45 51°14.036 2°43.758 13 338 -0.3 100400 43
2010-12-07 10:46 51°14.158 2°44.038 8.7 338 -0.3 100410 43
2010-12-07 10:47 51°14.272 2°44.327 9.4 336 -0.3 100400 43
2010-12-07 10:48 51°14.385 2°44.617 10.6 335 -0.4 100410 41
2010-12-07 10:49 51°14.5 2°44.907 10.1 336 -0.4 100410 43
2010-12-07 10:50 51°14.598 2°45.212 11.6 334 -0.4 100420 43
2010-12-07 10:51 51°14.682 2°45.528 9.2 334 -0.4 100410 42
2010-12-07 10:52 51°14.768 2°45.843 11.3 333 -0.3 100410 42
2010-12-07 10:53 51°14.854 2°46.154 10.6 334 -0.3 100400 43
2010-12-07 10:54 51°14.938 2°46.463 7.8 332 -0.2 100410 43
2010-12-07 10:55 51°15.017 2°46.776 10.8 332 -0.2 100400 42
2010-12-07 10:56 51°15.064 2°47.107 9.9 332 -0.3 100400 42
2010-12-07 10:57 51°15.109 2°47.44 10.2 330 -0.2 100400 43
2010-12-07 10:58 51°15.154 2°47.768 8.8 331 -0.3 100400 43
2010-12-07 10:59 51°15.201 2°48.106 8.4 330 -0.3 100400 42
2010-12-07 11:00 51°15.248 2°48.439 10.5 335 -0.2 100400 43
2010-12-07 11:01 51°15.287 2°48.776 5.1 330 -0.2 100400 41
2010-12-07 11:02 51°15.318 2°49.12 11 329 -0.2 100400 43
2010-12-07 11:03 51°15.352 2°49.468 11.4 329 -0.2 100390 42
2010-12-07 11:04 51°15.423 2°49.794 11.3 335 -0.2 100390 42
2010-12-07 11:05 51°15.537 2°50.09 11.4 334 -0.3 100400 43
2010-12-07 11:06 51°15.649 2°50.388 11.2 335 -0.3 100390 43
2010-12-07 11:07 51°15.771 2°50.664 10.9 340 -0.2 100400 43
2010-12-07 11:08 51°15.918 2°50.924 10.6 342 -0.2 100400 42
2010-12-07 11:09 51°16.074 2°51.16 12.7 342 -0.3 100400 42
2010-12-07 11:10 51°16.24 2°51.378 10 343 -0.2 100390 41
2010-12-07 11:11 51°16.41 2°51.585 8 343 -0.2 100390 42
2010-12-07 11:12 51°16.587 2°51.782 9.6 341 -0.1 100390 40
2010-12-07 11:13 51°16.772 2°51.954 9.5 345 -0.1 100390 43
2010-12-07 11:14 51°16.97 2°52.093 8.2 344 -0.1 100390 43
2010-12-07 11:15 51°17.167 2°52.234 4.4 343 -999 100400 43
2010-12-07 11:16 51°17.363 2°52.378 4.6 345 -999 100400 41
2010-12-07 11:17 51°17.565 2°52.529 10.5 342 -999 100400 42
2010-12-07 11:18 51°17.759 2°52.686 9.6 343 -999 100400 43
2010-12-07 11:19 51°17.947 2°52.861 9.9 343 -999 100400 42
2010-12-07 11:20 51°18.136 2°53.037 9.4 343 -999 100400 40
2010-12-07 11:21 51°18.323 2°53.218 10.8 340 -999 100390 42
2010-12-07 11:22 51°18.483 2°53.454 10.7 336 0.1 100390 42
2010-12-07 11:23 51°18.588 2°53.761 10.5 334 0.2 100400 42
2010-12-07 11:24 51°18.665 2°54.097 9.8 332 0.2 100400 42
2010-12-07 11:25 51°18.745 2°54.428 9.2 332 0.3 100410 41
2010-12-07 11:26 51°18.832 2°54.773 10.9 333 0.3 100400 41
2010-12-07 11:27 51°18.917 2°55.108 10.6 333 0.3 100410 42
2010-12-07 11:28 51°19.006 2°55.454 10 336 0.3 100400 42
2010-12-07 11:29 51°19.095 2°55.793 10.3 335 0.3 100390 42
2010-12-07 11:30 51°19.183 2°56.135 10.4 334 0.3 100410 43
2010-12-07 11:31 51°19.273 2°56.475 11.2 335 0.3 100410 41
2010-12-07 11:32 51°19.362 2°56.815 11.2 332 0.3 100410 41
2010-12-07 11:33 51°19.451 2°57.153 11.2 333 0.3 100410 43
2010-12-07 11:34 51°19.542 2°57.492 8.6 332 0.2 100410 42
2010-12-07 11:35 51°19.634 2°57.831 10 336 0.3 100410 43
2010-12-07 11:36 51°19.724 2°58.17 10 333 0.3 100410 40
2010-12-07 11:37 51°19.816 2°58.509 10.2 334 0.2 100410 42
2010-12-07 11:38 51°19.907 2°58.851 10.4 333 0.2 100410 42
2010-12-07 11:39 51°19.992 2°59.202 9 334 0.3 100410 41
2010-12-07 11:40 51°20.072 2°59.558 10.1 334 0.3 100410 42
2010-12-07 11:41 51°20.15 2°59.911 10.5 337 0.3 100400 42
2010-12-07 11:42 51°20.23 3°0.262 10.7 336 0.3 100410 41
2010-12-07 11:43 51°20.31 3°0.611 8.2 335 0.3 100400 41
2010-12-07 11:44 51°20.39 3°0.963 8.6 334 0.3 100400 41
2010-12-07 11:45 51°20.471 3°1.315 10 333 0.3 100400 42
2010-12-07 11:46 51°20.554 3°1.668 10.4 334 0.3 100400 42
2010-12-07 11:47 51°20.637 3°2.022 8.2 338 0.3 100400 43
2010-12-07 11:48 51°20.721 3°2.378 8.9 333 0.3 100410 41
2010-12-07 11:49 51°20.806 3°2.736 8.1 337 0.2 100400 43
2010-12-07 11:50 51°20.892 3°3.095 9.6 333 0.2 100400 41
2010-12-07 11:51 51°20.978 3°3.456 8.3 334 0.2 100400 42
2010-12-07 11:52 51°21.065 3°3.818 10.3 332 0.2 100400 40
2010-12-07 11:53 51°21.15 3°4.178 10.2 332 0.2 100400 43
2010-12-07 11:54 51°21.236 3°4.536 8.6 334 0.2 100390 43
2010-12-07 11:55 51°21.323 3°4.894 8.5 334 0.2 100390 43
2010-12-07 11:56 51°21.409 3°5.254 10.4 333 0.2 100390 43
2010-12-07 11:57 51°21.497 3°5.612 9.1 334 0.2 100400 43
2010-12-07 11:58 51°21.585 3°5.972 10.3 333 0.2 100380 43
2010-12-07 11:59 51°21.673 3°6.334 10.5 333 0.3 100380 42
2010-12-07 12:00 51°21.763 3°6.695 10.3 336 0.3 100380 40
2010-12-07 12:01 51°21.851 3°7.06 11.4 333 0.3 100380 41
2010-12-07 12:02 51°21.94 3°7.425 9.9 336 0.2 100370 43
2010-12-07 12:03 51°22.03 3°7.791 11.7 334 0.2 100380 42
2010-12-07 12:04 51°22.119 3°8.161 10.6 335 0.2 100370 42
2010-12-07 12:05 51°22.208 3°8.535 11.4 335 0.2 100370 42
2010-12-07 12:06 51°22.297 3°8.912 9.8 333 0.2 100380 42
2010-12-07 12:07 51°22.387 3°9.29 10.6 334 0.2 100370 42
2010-12-07 12:08 51°22.43 3°9.674 10.7 327 0.2 100380 42
2010-12-07 12:09 51°22.395 3°10.065 9.4 323 0.1 100380 43
2010-12-07 12:10 51°22.368 3°10.462 12.1 328 0.1 100380 42
2010-12-07 12:11 51°22.369 3°10.831 9.3 330 0.1 100380 42
2010-12-07 12:12 51°22.369 3°11.057 6.9 321 0.1 100390 41
2010-12-07 12:13 51°22.391 3°11.222 7.3 351 0.1 100390 42
2010-12-07 12:14 51°22.428 3°11.324 4.1 356 0.1 100380 43
2010-12-07 12:15 51°22.437 3°11.387 4.2 6 -999 100390 41
2010-12-07 12:16 51°22.445 3°11.454 3.8 19 0.1 100390 41
2010-12-07 12:17 51°22.453 3°11.523 5 27 0.2 100380 43
2010-12-07 12:18 51°22.461 3°11.592 4.9 27 0.2 100380 41
2010-12-07 12:19 51°22.47 3°11.662 4.1 31 0.2 100370 43
2010-12-07 12:20 51°22.479 3°11.731 5.1 32 0.2 100380 43
2010-12-07 12:21 51°22.542 3°11.734 2 23 0.1 100380 42
2010-12-07 12:22 51°22.646 3°11.588 1.7 14 0.1 100380 42
2010-12-07 12:23 51°22.763 3°11.363 0.5 4 0.1 100370 41
2010-12-07 12:24 51°22.883 3°11.136 0.9 3 0.1 100370 41
2010-12-07 12:25 51°23.006 3°10.907 1.5 355 0.1 100370 42
2010-12-07 12:26 51°23.13 3°10.675 0.3 358 0.1 100370 41
2010-12-07 12:27 51°23.247 3°10.467 0.7 14 0.2 100370 42
2010-12-07 12:28 51°23.301 3°10.36 -999 40 0.2 100370 42
2010-12-07 12:29 51°23.363 3°10.301 3.5 19 0.3 100370 42
2010-12-07 12:30 51°23.445 3°10.326 3.9 8 0.3 100360 44
2010-12-07 12:31 51°23.524 3°10.393 4.9 7 0.3 100360 41
2010-12-07 12:32 51°23.593 3°10.48 5.8 1 0.3 100360 42
2010-12-07 12:33 51°23.65 3°10.59 5.5 358 0.3 100350 41
2010-12-07 12:34 51°23.703 3°10.702 6.4 355 0.3 100340 41
2010-12-07 12:35 51°23.748 3°10.813 5.5 355 0.2 100340 43
2010-12-07 12:36 51°23.789 3°10.926 5.7 357 0.3 100350 41
2010-12-07 12:37 51°23.833 3°11.033 4.9 359 0.3 100340 43
2010-12-07 12:38 51°23.874 3°11.142 4.7 358 0.2 100350 43
2010-12-07 12:39 51°23.916 3°11.251 4.3 353 0.3 100350 42
2010-12-07 12:40 51°23.957 3°11.359 3.8 356 0.3 100350 40
2010-12-07 12:41 51°23.994 3°11.475 3.8 351 0.3 100350 43
2010-12-07 12:42 51°24.024 3°11.601 3.8 339 0.4 100360 43
2010-12-07 12:43 51°24.041 3°11.734 4.1 330 0.4 100350 43
2010-12-07 12:44 51°24.047 3°11.868 4.1 321 0.5 100350 44
2010-12-07 12:45 51°24.043 3°11.995 4.5 317 0.4 100350 43
2010-12-07 12:46 51°24.035 3°12.113 3.9 20 0.4 100350 43
2010-12-07 12:47 51°24.025 3°12.222 4.2 19 0.4 100340 42
2010-12-07 12:48 51°24.014 3°12.327 4.6 22 0.3 100340 43
2010-12-07 12:49 51°24.005 3°12.432 4.3 22 0.4 100340 44
2010-12-07 12:50 51°23.996 3°12.537 4.3 27 0.4 100340 41
2010-12-07 12:51 51°23.991 3°12.648 2.2 319 0.4 100340 42
2010-12-07 12:52 51°23.991 3°12.758 2.6 318 0.3 100340 41
2010-12-07 12:53 51°23.995 3°12.869 4.5 322 0.3 100340 44
2010-12-07 12:54 51°24.003 3°12.981 -999 329 0.4 100340 42
2010-12-07 12:55 51°24.015 3°13.094 -999 331 0.3 100340 43
2010-12-07 12:56 51°24.032 3°13.206 -999 335 0.4 100340 42
2010-12-07 12:57 51°24.05 3°13.318 -999 335 0.5 100340 43
2010-12-07 12:58 51°24.065 3°13.429 -999 334 0.4 100350 43
2010-12-07 12:59 51°24.079 3°13.54 -999 337 0.5 100340 43
2010-12-07 13:00 51°24.093 3°13.65 -999 332 0.5 100340 43
2010-12-07 13:01 51°24.107 3°13.758 -999 331 0.5 100340 42
2010-12-07 13:02 51°24.121 3°13.865 -999 330 0.5 100340 43
2010-12-07 13:03 51°24.134 3°13.973 -999 328 0.5 100340 43
2010-12-07 13:04 51°24.147 3°14.081 -999 328 0.5 100340 41
2010-12-07 13:05 51°24.158 3°14.188 4.9 329 0.5 100340 41
2010-12-07 13:06 51°24.171 3°14.295 4.7 334 0.5 100340 43
2010-12-07 13:07 51°24.184 3°14.403 4.4 335 0.5 100340 41
2010-12-07 13:08 51°24.199 3°14.51 4.8 336 0.5 100340 41
2010-12-07 13:09 51°24.212 3°14.616 5.2 326 0.5 100330 43
2010-12-07 13:10 51°24.222 3°14.719 4.3 328 0.5 100340 43
2010-12-07 13:11 51°24.235 3°14.822 5.3 330 0.5 100340 42
2010-12-07 13:12 51°24.248 3°14.923 5.6 330 0.6 100340 41
2010-12-07 13:13 51°24.259 3°15.025 5.1 328 0.6 100340 43
2010-12-07 13:14 51°24.27 3°15.126 5 327 0.6 100330 43
2010-12-07 13:15 51°24.28 3°15.224 -999 330 0.5 100320 42
2010-12-07 13:16 51°24.29 3°15.319 3.3 328 0.5 100330 43
2010-12-07 13:17 51°24.292 3°15.408 3.1 319 0.5 100320 41
2010-12-07 13:18 51°24.289 3°15.49 4.4 24 0.5 100310 43
2010-12-07 13:19 51°24.284 3°15.575 5.6 26 0.5 100320 43
2010-12-07 13:20 51°24.252 3°15.679 6 247 0.5 100310 42
2010-12-07 13:21 51°24.193 3°15.734 6.4 258 0.5 100320 43
2010-12-07 13:22 51°24.135 3°15.774 5.3 258 0.5 100320 41
2010-12-07 13:23 51°24.075 3°15.753 -999 22 0.5 100330 42
2010-12-07 13:24 51°24.051 3°15.733 -999 22 0.4 100330 42
2010-12-07 13:25 51°24.039 3°15.725 -999 22 0.4 100330 42
2010-12-07 13:26 51°24.032 3°15.726 -999 22 0.4 100340 42
2010-12-07 13:27 51°24.013 3°15.68 -999 22 0.3 100330 42
2010-12-07 13:28 51°23.964 3°15.522 -999 22 0.4 100330 41
2010-12-07 13:29 51°23.893 3°15.288 -999 333 0.4 100330 42
2010-12-07 13:30 51°23.815 3°15.016 -999 327 0.4 100320 42
2010-12-07 13:31 51°23.724 3°14.753 -999 22 0.5 100320 42
2010-12-07 13:32 51°23.629 3°14.496 -999 22 0.5 100320 42
2010-12-07 13:33 51°23.536 3°14.238 -999 22 0.5 100320 42
2010-12-07 13:34 51°23.443 3°13.986 -999 323 0.5 100320 42
2010-12-07 13:35 51°23.353 3°13.734 -999 22 0.6 100320 43
2010-12-07 13:36 51°23.261 3°13.483 -999 22 0.7 100320 42
2010-12-07 13:37 51°23.169 3°13.229 -999 22 0.7 100320 43
2010-12-07 13:38 51°23.079 3°12.975 -999 22 0.7 100320 43
2010-12-07 13:39 51°23.058 3°12.69 -999 349 0.7 100330 43
2010-12-07 13:40 51°23.037 3°12.4 -999 328 0.7 100330 42
2010-12-07 13:41 51°23.011 3°12.108 -999 328 0.7 100330 43
2010-12-07 13:42 51°22.977 3°11.819 -999 326 0.6 100320 43
2010-12-07 13:43 51°22.938 3°11.52 -999 342 0.6 100330 43
2010-12-07 13:44 51°22.91 3°11.288 -999 22 0.7 100330 41
2010-12-07 13:45 51°22.912 3°11.21 -999 22 0.8 100320 43
2010-12-07 13:46 51°22.908 3°11.184 -999 22 1.2 100320 43
2010-12-07 13:47 51°22.909 3°11.172 -999 22 1.6 100320 44
2010-12-07 13:48 51°22.902 3°11.143 -999 22 1.7 100310 43
2010-12-07 13:49 51°22.882 3°11.098 -999 22 1.4 100320 42
2010-12-07 13:50 51°22.874 3°11.037 -999 44 1.3 100320 42
2010-12-07 13:51 51°22.888 3°10.971 -999 43 1.1 100320 42
2010-12-07 13:52 51°22.898 3°10.877 -999 44 1 100320 42
2010-12-07 13:53 51°22.88 3°10.731 -999 22 1 100320 42
2010-12-07 13:54 51°22.818 3°10.548 -999 22 0.9 100320 42
2010-12-07 13:55 51°22.715 3°10.3 -999 22 0.9 100320 42
2010-12-07 13:56 51°22.604 3°10.041 -999 22 1 100320 42
2010-12-07 13:57 51°22.471 3°9.809 -999 22 1 100310 42
2010-12-07 13:58 51°22.328 3°9.596 -999 22 0.9 100310 43
2010-12-07 13:59 51°22.186 3°9.38 4 20 0.8 100310 42
2010-12-07 14:00 51°22.045 3°9.164 2.7 22 0.8 100300 43
2010-12-07 14:01 51°21.905 3°8.942 0.1 21 0.8 100300 44
2010-12-07 14:02 51°21.764 3°8.719 -999 22 0.7 100310 42
2010-12-07 14:03 51°21.624 3°8.495 -999 22 0.7 100300 42
2010-12-07 14:04 51°21.483 3°8.269 -999 22 0.7 100300 42
2010-12-07 14:05 51°21.343 3°8.046 -999 22 0.7 100300 42
2010-12-07 14:06 51°21.2 3°7.817 -999 22 0.6 100300 42
2010-12-07 14:07 51°21.061 3°7.598 -999 22 0.6 100310 42
2010-12-07 14:08 51°20.926 3°7.388 -999 22 0.6 100300 42
2010-12-07 14:09 51°20.79 3°7.183 -999 22 0.6 100300 42
2010-12-07 14:10 51°20.651 3°6.966 -999 22 0.6 100300 42
2010-12-07 14:11 51°20.512 3°6.751 -999 22 0.5 100310 42
2010-12-07 14:12 51°20.372 3°6.535 -999 22 0.5 100300 42
2010-12-07 14:13 51°20.231 3°6.312 -999 22 0.5 100300 42
2010-12-07 14:14 51°20.09 3°6.087 -999 22 0.5 100310 42
2010-12-07 14:15 51°19.945 3°5.862 -999 22 0.5 100300 42
2010-12-07 14:16 51°19.805 3°5.631 -999 22 0.4 100300 42
2010-12-07 14:17 51°19.661 3°5.391 -999 22 0.4 100300 42
2010-12-07 14:18 51°19.545 3°5.132 -999 22 0.4 100310 42
2010-12-07 14:19 51°19.463 3°4.842 -999 22 0.4 100310 42
2010-12-07 14:20 51°19.387 3°4.555 -999 325 0.4 100300 42
2010-12-07 14:21 51°19.291 3°4.277 -999 22 0.3 100310 41
2010-12-07 14:22 51°19.179 3°4.016 -999 22 0.3 100300 41
2010-12-07 14:23 51°19.068 3°3.755 -999 22 0.3 100300 41
2010-12-07 14:24 51°18.954 3°3.484 -999 22 0.4 100300 41
2010-12-07 14:25 51°18.843 3°3.216 -999 22 0.3 100300 41
2010-12-07 14:26 51°18.732 3°2.947 -999 22 0.3 100300 41
2010-12-07 14:27 51°18.622 3°2.685 -999 22 0.3 100300 41
2010-12-07 14:28 51°18.513 3°2.421 -999 22 0.3 100300 41
2010-12-07 14:29 51°18.404 3°2.163 -999 22 0.3 100300 41
2010-12-07 14:30 51°18.295 3°1.905 -999 22 0.3 100300 41
2010-12-07 14:31 51°18.188 3°1.645 -999 22 0.4 100300 41
2010-12-07 14:32 51°18.08 3°1.388 -999 22 0.3 100310 41
2010-12-07 14:33 51°17.973 3°1.129 -999 22 0.3 100310 41
2010-12-07 14:34 51°17.865 3°0.87 -999 22 0.3 100310 41
2010-12-07 14:35 51°17.753 3°0.6 -999 22 0.3 100320 41
2010-12-07 14:36 51°17.641 3°0.33 -999 22 0.2 100320 41
2010-12-07 14:37 51°17.529 3°0.061 -999 22 0.2 100320 41
2010-12-07 14:38 51°17.419 2°59.795 -999 22 0.2 100320 41
2010-12-07 14:39 51°17.305 2°59.52 -999 22 0.2 100320 41
2010-12-07 14:40 51°17.192 2°59.248 -999 22 0.2 100330 41
2010-12-07 14:41 51°17.078 2°58.975 -999 22 0.1 100320 41
2010-12-07 14:42 51°16.962 2°58.699 -999 22 0.1 100330 41
2010-12-07 14:43 51°16.848 2°58.423 -999 22 0.1 100330 41
2010-12-07 14:44 51°16.734 2°58.149 -999 318 0.1 100340 41
2010-12-07 14:45 51°16.619 2°57.874 -999 22 -999 100340 41
2010-12-07 14:46 51°16.505 2°57.599 -999 22 -999 100340 41
2010-12-07 14:47 51°16.39 2°57.325 -999 316 -999 100340 41
2010-12-07 14:48 51°16.277 2°57.05 -999 22 -999 100340 41
2010-12-07 14:49 51°16.164 2°56.776 -999 22 -0.1 100340 41
2010-12-07 14:50 51°16.05 2°56.499 -999 22 -0.1 100340 41
2010-12-07 14:51 51°15.929 2°56.228 -999 317 -0.1 100340 41
2010-12-07 14:52 51°15.809 2°55.959 -999 22 -0.1 100350 41
2010-12-07 14:53 51°15.684 2°55.702 -999 22 -0.1 100350 41
2010-12-07 14:54 51°15.53 2°55.501 -999 22 -0.1 100350 41
2010-12-07 14:55 51°15.357 2°55.325 -999 22 -0.1 100350 41
2010-12-07 14:56 51°15.189 2°55.163 -999 22 -0.1 100350 40
2010-12-07 14:57 51°15.026 2°54.992 -999 22 -0.1 100350 41
2010-12-07 14:58 51°14.847 2°54.904 -999 22 -0.1 100350 41
2010-12-07 14:59 51°14.649 2°54.948 8.9 23 -0.2 100340 42
2010-12-07 15:00 51°14.485 2°55.057 6.2 20 -0.2 100330 40
2010-12-07 15:01 51°14.359 2°55.175 6.4 21 -0.3 100340 42
2010-12-07 15:02 51°14.264 2°55.278 5.3 24 -0.3 100340 40
2010-12-07 15:03 51°14.159 2°55.386 4.7 315 -0.4 100350 40
2010-12-07 15:04 51°14.031 2°55.481 4.3 18 -0.4 100350 39
2010-12-07 15:05 51°13.929 2°55.553 0.9 27 -0.4 100350 42
2010-12-07 15:06 51°13.837 2°55.628 2.2 18 -0.5 100350 40
2010-12-07 15:07 51°13.749 2°55.733 3.7 21 -0.5 100350 41
2010-12-07 15:08 51°13.697 2°55.836 1.1 17 -0.5 100350 40
2010-12-07 15:09 51°13.67 2°55.923 -999 316 -0.6 100350 41
2010-12-07 15:10 51°13.662 2°55.96 -999 22 -0.6 100360 41